• In Hungary
  • List of Countries
  • For 7 days
  • Water Temperature
  • Satellite Maps
  • Weather Map
  • News
  • Weather Widgets
  • user-avatar
    Login

    Hourly Weather Maloe Alekseycevo

    Today, 25 April, Wednesday

    Time Temperature Precipitation Wind Pressure Humidity
    00:00 +3°C° 0.1 mm 3 mps 738 mmHg 70%
    01:00 +3°C° 0.1 mm 3 mps 738 mmHg 75%
    02:00 +4°C° 0 mm 2 mps 737 mmHg 82%
    03:00 +4°C° 0.1 mm 2 mps 737 mmHg 85%
    04:00 +3°C° 0.1 mm 3 mps 737 mmHg 88%
    05:00 +3°C° 0.1 mm 3 mps 737 mmHg 91%
    06:00 +4°C° 0.1 mm 3 mps 737 mmHg 89%
    07:00 +5°C° 0.1 mm 3 mps 736 mmHg 88%
    08:00 +6°C° 0 mm 4 mps 736 mmHg 84%
    09:00 +6°C° 0.4 mm 4 mps 736 mmHg 84%
    10:00 +7°C° 0.4 mm 4 mps 736 mmHg 84%
    11:00 +7°C° 0.4 mm 4 mps 736 mmHg 84%
    12:00 +8°C° 0.4 mm 4 mps 735 mmHg 81%
    13:00 +10°C° 0.4 mm 4 mps 735 mmHg 78%
    14:00 +11°C° 0.4 mm 4 mps 735 mmHg 75%
    15:00 +11°C° 0.7 mm 3 mps 734 mmHg 74%
    16:00 +11°C° 0.7 mm 3 mps 734 mmHg 74%
    17:00 +11°C° 0.7 mm 3 mps 734 mmHg 74%
    18:00 +9°C° 0.3 mm 2 mps 734 mmHg 79%
    19:00 +8°C° 0.3 mm 2 mps 734 mmHg 83%
    20:00 +7°C° 0.3 mm 2 mps 733 mmHg 88%
    21:00 +6°C° 0 mm 2 mps 733 mmHg 89%
    22:00 +5°C° 0 mm 2 mps 733 mmHg 91%
    23:00 +5°C° 0 mm 2 mps 733 mmHg 92%

    Tomorrow, 26 April, Thursday

    Time Temperature Precipitation Wind Pressure Humidity
    00:00 +4°C° 0 mm 2 mps 733 mmHg 93%
    01:00 +4°C° 0 mm 2 mps 733 mmHg 94%
    02:00 +4°C° 0 mm 2 mps 733 mmHg 95%
    03:00 +4°C° 0 mm 2 mps 732 mmHg 95%
    04:00 +4°C° 0 mm 2 mps 732 mmHg 94%
    05:00 +5°C° 0 mm 1 mps 732 mmHg 94%
    06:00 +6°C° 0 mm 2 mps 732 mmHg 88%
    07:00 +7°C° 0 mm 2 mps 731 mmHg 82%
    08:00 +9°C° 0 mm 2 mps 731 mmHg 75%
    09:00 +10°C° 0 mm 2 mps 731 mmHg 71%
    10:00 +12°C° 0 mm 2 mps 730 mmHg 67%
    11:00 +12°C° 0 mm 2 mps 730 mmHg 63%
    12:00 +12°C° 0.2 mm 2 mps 730 mmHg 65%
    13:00 +12°C° 0.2 mm 2 mps 730 mmHg 68%
    14:00 +12°C° 0.2 mm 2 mps 730 mmHg 71%
    15:00 +10°C° 0.3 mm 2 mps 730 mmHg 76%
    16:00 +9°C° 0.3 mm 2 mps 730 mmHg 80%
    17:00 +9°C° 0.3 mm 2 mps 730 mmHg 85%
    18:00 +8°C° 0.5 mm 3 mps 731 mmHg 87%
    19:00 +6°C° 0.5 mm 4 mps 732 mmHg 88%
    20:00 +6°C° 0.5 mm 5 mps 732 mmHg 90%
    21:00 +6°C° 0.3 mm 5 mps 733 mmHg 89%
    22:00 +5°C° 0.3 mm 5 mps 734 mmHg 89%
    23:00 +5°C° 0.3 mm 5 mps 734 mmHg 89%

    Day after tomorrow, 27 April, Friday

    Time Temperature Precipitation Wind Pressure Humidity
    00:00 +4°C° 0 mm 4 mps 735 mmHg 90%
    01:00 +4°C° 0 mm 4 mps 735 mmHg 91%
    02:00 +3°C° 0 mm 4 mps 736 mmHg 92%
    03:00 +3°C° 0 mm 3 mps 736 mmHg 93%
    04:00 +2°C° 0 mm 3 mps 736 mmHg 94%
    05:00 +2°C° 0 mm 3 mps 737 mmHg 94%
    06:00 +3°C° 0 mm 3 mps 737 mmHg 91%
    07:00 +4°C° 0 mm 3 mps 738 mmHg 87%
    08:00 +6°C° 0 mm 4 mps 738 mmHg 83%
    09:00 +6°C° 0.1 mm 4 mps 739 mmHg 78%
    10:00 +7°C° 0.1 mm 4 mps 739 mmHg 73%
    11:00 +8°C° 0.1 mm 4 mps 740 mmHg 68%
    12:00 +10°C° 0.3 mm 4 mps 740 mmHg 63%
    13:00 +11°C° 0.3 mm 4 mps 740 mmHg 59%
    14:00 +11°C° 0.3 mm 4 mps 740 mmHg 55%
    15:00 +11°C° 0 mm 4 mps 740 mmHg 54%
    16:00 +11°C° 0 mm 3 mps 740 mmHg 53%
    17:00 +11°C° 0 mm 3 mps 740 mmHg 53%
    18:00 +9°C° 0 mm 2 mps 741 mmHg 59%
    19:00 +8°C° 0 mm 2 mps 741 mmHg 64%
    20:00 +7°C° 0 mm 1 mps 741 mmHg 70%
    21:00 +7°C° 0 mm 1 mps 741 mmHg 73%
    22:00 +6°C° 0 mm 1 mps 742 mmHg 76%
    23:00 +5°C° 0 mm 1 mps 742 mmHg 78%

    28 April, Saturday

    Time Temperature Precipitation Wind Pressure Humidity
    00:00 +5°C° 0 mm 1 mps 742 mmHg 81%
    01:00 +5°C° 0 mm 1 mps 742 mmHg 84%
    02:00 +4°C° 0 mm 1 mps 742 mmHg 87%
    03:00 +3°C° 0 mm 2 mps 742 mmHg 89%
    04:00 +3°C° 0 mm 2 mps 742 mmHg 90%
    05:00 +3°C° 0 mm 2 mps 742 mmHg 92%
    06:00 +5°C° 0 mm 2 mps 743 mmHg 85%
    07:00 +7°C° 0 mm 2 mps 743 mmHg 79%
    08:00 +8°C° 0 mm 3 mps 743 mmHg 73%
    09:00 +9°C° 0.4 mm 3 mps 743 mmHg 69%
    10:00 +10°C° 0.4 mm 3 mps 743 mmHg 65%
    11:00 +11°C° 0.4 mm 4 mps 743 mmHg 62%
    12:00 +11°C° 0.4 mm 4 mps 744 mmHg 60%
    13:00 +11°C° 0.4 mm 4 mps 744 mmHg 57%
    14:00 +11°C° 0.4 mm 4 mps 744 mmHg 55%
    15:00 +11°C° 0.1 mm 4 mps 744 mmHg 56%
    16:00 +11°C° 0.1 mm 4 mps 744 mmHg 56%
    17:00 +11°C° 0.1 mm 3 mps 744 mmHg 57%
    18:00 +9°C° 0 mm 3 mps 744 mmHg 63%
    19:00 +8°C° 0 mm 2 mps 744 mmHg 69%
    20:00 +6°C° 0 mm 2 mps 745 mmHg 76%
    21:00 +6°C° 0 mm 2 mps 745 mmHg 77%
    22:00 +5°C° 0 mm 2 mps 745 mmHg 79%
    23:00 +5°C° 0 mm 2 mps 745 mmHg 81%

    29 April, Sunday

    Time Temperature Precipitation Wind Pressure Humidity
    00:00 +4°C° 0 mm 2 mps 745 mmHg 82%
    01:00 +4°C° 0 mm 2 mps 745 mmHg 83%
    02:00 +4°C° 0 mm 2 mps 745 mmHg 85%
    03:00 +4°C° 0 mm 2 mps 745 mmHg 84%
    04:00 +4°C° 0 mm 2 mps 745 mmHg 83%
    05:00 +5°C° 0 mm 2 mps 744 mmHg 82%
    06:00 +4°C° 0.2 mm 3 mps 744 mmHg 81%
    07:00 +5°C° 0.2 mm 3 mps 743 mmHg 81%
    08:00 +6°C° 0.2 mm 4 mps 743 mmHg 80%
    09:00 +6°C° 0.5 mm 4 mps 742 mmHg 83%
    10:00 +6°C° 0.5 mm 4 mps 742 mmHg 86%
    11:00 +6°C° 0.5 mm 4 mps 742 mmHg 89%
    12:00 +7°C° 0.1 mm 4 mps 742 mmHg 87%
    13:00 +8°C° 0.1 mm 4 mps 742 mmHg 85%
    14:00 +10°C° 0.1 mm 4 mps 742 mmHg 84%
    15:00 +10°C° 0.1 mm 4 mps 742 mmHg 82%
    16:00 +8°C° 0.1 mm 4 mps 742 mmHg 79%
    17:00 +8°C° 0.1 mm 5 mps 742 mmHg 77%
    18:00 +7°C° 0 mm 4 mps 743 mmHg 79%
    19:00 +7°C° 0 mm 4 mps 743 mmHg 81%
    20:00 +6°C° 0 mm 4 mps 743 mmHg 84%
    21:00 +5°C° 0 mm 4 mps 743 mmHg 84%
    22:00 +5°C° 0 mm 4 mps 743 mmHg 85%
    23:00 +5°C° 0 mm 4 mps 743 mmHg 86%

    30 April, Monday

    Time Temperature Precipitation Wind Pressure Humidity
    00:00 +4°C° 0 mm 4 mps 743 mmHg 87%
    01:00 +4°C° 0 mm 4 mps 743 mmHg 88%
    02:00 +4°C° 0 mm 4 mps 743 mmHg 90%
    03:00 +4°C° 0 mm 4 mps 743 mmHg 88%
    04:00 +3°C° 0 mm 5 mps 743 mmHg 86%
    05:00 +3°C° 0 mm 5 mps 743 mmHg 85%
    06:00 +3°C° 0 mm 5 mps 744 mmHg 83%
    07:00 +5°C° 0 mm 5 mps 744 mmHg 80%
    08:00 +5°C° 0 mm 5 mps 744 mmHg 78%
    09:00 +6°C° 0 mm 5 mps 745 mmHg 77%
    10:00 +6°C° 0 mm 5 mps 745 mmHg 76%
    11:00 +6°C° 0 mm 5 mps 746 mmHg 75%
    12:00 +7°C° 0 mm 5 mps 746 mmHg 72%
    13:00 +8°C° 0 mm 5 mps 746 mmHg 69%
    14:00 +10°C° 0 mm 4 mps 747 mmHg 66%
    15:00 +10°C° 0 mm 4 mps 747 mmHg 64%
    16:00 +10°C° 0 mm 4 mps 747 mmHg 62%
    17:00 +11°C° 0 mm 3 mps 747 mmHg 60%
    18:00 +9°C° 0 mm 2 mps 747 mmHg 67%
    19:00 +8°C° 0 mm 2 mps 747 mmHg 73%
    20:00 +7°C° 0 mm 1 mps 747 mmHg 80%
    21:00 +7°C° 0 mm 1 mps 748 mmHg 81%
    22:00 +6°C° 0 mm 1 mps 748 mmHg 82%
    23:00 +6°C° 0 mm 1 mps 748 mmHg 83%
    Show more